{"data":{"norad_id":45807,"intl_designator":"2020-040A","name":"BEIDOU-3 G3 (PRN 143)","alt_names":[],"object_type":"PAYLOAD","status":"ACTIVE","operator":null,"country":"PRC","launch_date":"2020-06-23","launch_site_code":"XICLF","launch_vehicle":null,"mission":null,"orbit_class":"UNKNOWN","rcs_meters":null,"size_class":null,"mass_kg":null,"dimensions":null,"purposes":["comms","nav"],"wikipedia_slug":null,"has_3d_model":false,"image_url":null,"decayed_at":null,"tle_current":{"epoch":"2026-05-25T00:50:51.266976Z","epoch_age_seconds":65866,"freshness":"FRESH","line1":"1 45807U 20040A   26145.03531559 -.00000355  00000+0  00000+0 0  9991","line2":"2 45807   2.3929  67.3971 0003138 335.2392 323.2267  1.00268585 21830","mean_motion":1.00268585,"eccentricity":0.0003138,"inclination_deg":2.3929,"raan_deg":67.3971,"arg_perigee_deg":335.2392,"mean_anomaly_deg":323.2267,"bstar":0,"rev_number":2183,"period_min":1436.1427360324,"perigee_km":35774.260486813,"apogee_km":35800.723635611,"semimajor_km":42165.629061212,"source":"CELESTRAK","updated_at":"2026-05-25T13:38:24.344603Z"}}}